Regional Weather Roundup
Issued by NWS

Home | Current Version | Previous Version | Graphics & Text | Print | Product List | Glossary On
Versions: 1 2 3 4 5 6 7 8 9 10 11 12 13 14 15 16 17 18 19 20 21 22 23 24 25 26 27 28 29 30 31 32 33 34 35 36 37 38 39 40 41 42 43 44 45 46 47 48 49 50
000
ASUS45 KBOU 061507
RWRCO

WEATHER ROUNDUP FOR COLORADO
NATIONAL WEATHER SERVICE DENVER/BOULDER CO
800 AM MST SAT FEB 06 2016

NOTE: "FAIR" INDICATES FEW OR NO CLOUDS BELOW 12000 FEET WITH NO
SIGNIFICANT WEATHER AND/OR OBSTRUCTIONS TO VISIBILITY.

COZ001>005-013-030-031-061600-
...NORTHWEST COLORADO...

CITY           SKY/WX    TMP DP  RH WIND       PRES   REMARKS
CRAIG          CLOUDY   -11 -15  82 CALM      30.49F
HAYDEN         CLOUDY     9   1  72 E10       30.46S WCI  -6
MEEKER         CLOUDY     3  -2  79 CALM      30.49F
MOUNT WERNER   NOT AVBL
STEAMBOAT SPGS CLOUDY     4   1  88 CALM      30.46F
WALDEN         CLOUDY     3  -4  72 SE7       30.39R WCI  -9
$$

COZ006>008-011-061600-
...WEST CENTRAL VALLEYS...

CITY           SKY/WX    TMP DP  RH WIND       PRES   REMARKS
GRAND JUNCTION CLOUDY     2   1  96 CALM      30.60R
MONTROSE       CLOUDY     5  -2  72 SE10      30.59S WCI -10
EAGLE          CLEAR     -6  -9  84 CALM      30.62R
RIFLE          CLOUDY     2  -3  80 CALM      30.60R
DELTA          CLOUDY    13   8  78 CALM      30.61R
NUCLA          CLOUDY    10   3  72 CALM      30.58R
$$

COZ017>023-064>068-061600-
...SOUTHWEST COLORADO...

CITY           SKY/WX    TMP DP  RH WIND       PRES   REMARKS
DURANGO        CLOUDY    -1  -3  91 E5        30.47R WCI -11
CORTEZ         CLOUDY     8   2  76 E9        30.51R WCI  -5
PAGOSA SPRINGS CLOUDY   N/A N/A N/A CALM      30.43R
TELLURIDE      CLOUDY    15   8  73 SE7       30.46S WCI   5
WOLF CREEK PAS CLOUDY    19   3  49 CALM      30.41S
$$

COZ009-010-012-014-032>034-037-058>063-061600-
...CENTRAL COLORADO...

CITY           SKY/WX    TMP DP  RH WIND       PRES   REMARKS
ASPEN          CLOUDY     4  -1  80 S6        30.47R WCI  -7
BUENA VISTA    CLOUDY     3  -3  74 CALM      30.36S
COPPER MTN     FLURRIES  14   9  79 W13G20    30.37R WCI   0
BERTHOUD PASS  CLOUDY     3  -6  66 NW40G48   30.24S WCI -24
COTTONWOOD PAS CLOUDY    25   9  50 NW9G16    30.32R WCI  15
GUNNISON       CLOUDY   -20 -20 100 CALM      30.59R
KREMMLING      CLOUDY   N/A N/A N/A CALM      30.54R
LEADVILLE      CLOUDY     8   2  76 N7        30.39R WCI  -3
MONARCH PASS     N/A      5   1  85 MISG      30.41S
SALIDA         NOT AVBL
SUNLIGHT       CLOUDY    18  12  79 CALM        N/A
WILKERSON PASS CLOUDY    19   5  53 NW16G26   30.28S WCI   5
$$

COZ069>075-061600-
...SAN LUIS VALLEY/SANGRE DE CRISTO MOUNTAINS...

CITY           SKY/WX    TMP DP  RH WIND       PRES   REMARKS
ALAMOSA        CLOUDY    -5  -9  83 S3        30.45R
LA VETA PASS   CLOUDY     7   0  72 MISG      30.29R
SAGUACHE       CLOUDY    10   0  61 E3        30.43S
$$

COZ035-036-038>040-061600-
...NORTHERN COLORADO FRONT RANGE...

CITY           SKY/WX    TMP DP  RH WIND       PRES   REMARKS
DENVER INTL AP CLOUDY    27   9  46 S20       30.17F WCI  13
DMNS CITY PARK   N/A     30   7  39 S8G15     30.20S WCI  22
AURORA         PTCLDY    23   9  53 S12       30.20S WCI  12
FRONT RANGE AP PTCLDY    28   9  43 MISG      30.19F
ERIE MUNI ARPT CLOUDY    12   9  86 S3        30.20R
BOULDER MUN AP CLOUDY    21   9  58 CALM      30.18S
CENTENNIAL     CLOUDY    25   8  48 S5        30.20S WCI  19
BROOMFIELD     PTCLDY    28   9  43 W6        30.19S WCI  22
FORT COLLINS   CLOUDY    10   7  85 CALM      30.20R
LONGMONT       CLOUDY    11   2  66 CALM      30.21S
$$

COZ041-046-047-076>085-087-088-061600-
...PIKES PEAK/PALMER DIVIDE AND SOUTHERN FOOTHILLS...

CITY           SKY/WX    TMP DP  RH WIND       PRES   REMARKS
COLO. SPRINGS  CLOUDY    22   3  44 N8        30.23S WCI  12
A. F. ACADEMY  CLOUDY    16   3  56 NE10      30.21S WCI   4
SCHRIEVER AFB  FAIR      24   1  38 W5        30.23R WCI  18
ELLICOTT       NOT AVBL
FALCON         CLOUDY    25   2  36 W8        30.24R WCI  17
FORT CARSON    CLOUDY    20   6  55 N10       30.21S WCI   8
LIMON          CLOUDY     2  -6  69 N6        30.23S WCI  -9
MONUMENT HILL  CLOUDY    25   5  42 SW13      30.22S WCI  13
TRINIDAD       CLOUDY    22   8  55 W12       30.27S WCI  10
$$

COZ042>045-048>051-090-091-061600-
...NORTHEAST COLORADO...

CITY           SKY/WX    TMP DP  RH WIND       PRES   REMARKS
GREELEY ARPT   CLOUDY     1  -2  85 NW7       30.23R WCI -11
AKRON          CLOUDY    19   6  57 W17       30.19S WCI   4
BURLINGTON     CLOUDY    19   6  57 SW14      30.23S WCI   6
WRAY           CLOUDY    17   7  63 W10       30.22R WCI   5
STERLING       CLOUDY    10   3  72 S10       30.21S WCI  -3
HOLYOKE        CLOUDY    25  14  63 W15       30.20R WCI  12
FORT MORGAN    CLOUDY     7   2  82 W13       30.21F WCI  -9
$$

COZ086-089-092>099-061600-
...SOUTHEAST COLORADO...

CITY           SKY/WX    TMP DP  RH WIND       PRES   REMARKS
PUEBLO         CLOUDY    16   8  71 NW5       30.27R WCI   9
LA JUNTA       CLOUDY    18  11  74 W9        30.29R WCI   7
LAMAR          SUNNY     17  12  80 SW8       30.30S WCI   7
SPRINGFIELD      N/A     25  16  68 SW5       30.29S WCI  19
$$



USA.gov is the U.S. government's official web portal to all federal, state and local government web resources and services.